| time (UTC) | temp C | wind direction | speed KPH | gust KPH | rain 1hr cm | rain 24hr cm | rain mn cm | humidity % | barometer mb |
| 20260903083053 | 20 | 219 | 4.8 | 6.4 | 0.00 | 0.00 | 0.00 | 94 | 1012.6 |
| 20260903081551 | 20 | 219 | 1.6 | 6.4 | 0.00 | 0.00 | 0.00 | 94 | 1012.5 |
| 20260903080058 | 20 | 219 | 0.0 | 4.8 | 0.00 | 0.00 | 0.00 | 93 | 1012.5 |
| 20260903074605 | 20 | 219 | 3.2 | 4.8 | 0.00 | 0.00 | 0.00 | 93 | 1012.3 |
| 20260903073056 | 20 | 219 | 1.6 | 4.8 | 0.00 | 0.00 | 0.00 | 93 | 1012.4 |
| 20260903071552 | 20 | 219 | 1.6 | 4.8 | 0.00 | 0.00 | 0.00 | 93 | 1012.6 |
| 20260903070051 | 20 | 219 | 1.6 | 6.4 | 0.00 | 0.00 | 0.00 | 93 | 1012.7 |
| 20260903064554 | 20 | 219 | 1.6 | 6.4 | 0.00 | 0.00 | 0.00 | 93 | 1012.7 |
| 20260903063046 | 20 | 219 | 4.8 | 6.4 | 0.00 | 0.00 | 0.00 | 93 | 1012.7 |
| 20260903061553 | 20 | 219 | 3.2 | 6.4 | 0.00 | 0.00 | 0.00 | 92 | 1012.7 |
| 20260903060055 | 20 | 219 | 3.2 | 6.4 | 0.00 | 0.00 | 0.00 | 92 | 1012.7 |
| 20260903054547 | 20 | 219 | 1.6 | 8.0 | 0.00 | 0.00 | 0.00 | 91 | 1012.9 |
| 20260903053102 | 20 | 219 | 3.2 | 6.4 | 0.00 | 0.00 | 0.00 | 91 | 1012.5 |
| 20260903051559 | 20 | 219 | 1.6 | 8.0 | 0.00 | 0.00 | 0.00 | 91 | 1012.5 |
| 20260903050100 | 21 | 219 | 0.0 | 8.0 | 0.00 | 0.00 | 0.00 | 91 | 1012.2 |
| 20260903044553 | 21 | 219 | 0.0 | 4.8 | 0.00 | 0.00 | 0.00 | 91 | 1012.2 |
| 20260903043057 | 21 | 219 | 3.2 | 17.7 | 0.00 | 0.00 | 0.00 | 90 | 1011.6 |
| 20260903041610 | 21 | 184 | 11.3 | 17.7 | 0.00 | 0.00 | 0.00 | 90 | 1011.7 |
| 20260903040117 | 21 | 172 | 9.7 | 19.3 | 0.00 | 0.00 | 0.00 | 90 | 1011.9 |
| 20260903034551 | 21 | 219 | 11.3 | 19.3 | 0.00 | 0.00 | 0.00 | 90 | 1012.0 |
| 20260903033057 | 21 | 248 | 11.3 | 24.1 | 0.00 | 0.00 | 0.00 | 89 | 1012.2 |
| 20260903031547 | 21 | 214 | 12.9 | 25.7 | 0.00 | 0.00 | 0.00 | 90 | 1012.0 |
| 20260903030057 | 21 | 234 | 12.9 | 25.7 | 0.00 | 0.00 | 0.00 | 90 | 1012.1 |
| 20260903024553 | 21 | 201 | 12.9 | 27.4 | 0.00 | 0.00 | 0.00 | 89 | 1012.1 |
| 20260903023049 | 21 | 230 | 19.3 | 29.0 | 0.00 | 0.00 | 0.00 | 89 | 1012.6 |
| 20260903021547 | 21 | 197 | 19.3 | 29.0 | 0.00 | 0.00 | 0.00 | 90 | 1011.7 |
| 20260903020046 | 21 | 222 | 17.7 | 27.4 | 0.00 | 0.00 | 0.00 | 91 | 1011.8 |
| 20260903014556 | 21 | 186 | 16.1 | 29.0 | 0.00 | 0.00 | 0.00 | 92 | 1011.7 |
| 20260903013050 | 20 | 196 | 17.7 | 32.2 | 0.00 | 0.00 | 0.00 | 92 | 1012.0 |
| 20260903011552 | 20 | 193 | 12.9 | 22.5 | 0.00 | 0.00 | 0.00 | 92 | 1012.7 |
| 20260903010047 | 20 | 186 | 14.5 | 22.5 | 0.00 | 0.00 | 0.00 | 92 | 1013.5 |
| 20260903004558 | 20 | 232 | 9.7 | 22.5 | 0.00 | 0.00 | 0.00 | 92 | 1013.0 |
| 20260903003052 | 20 | 184 | 14.5 | 22.5 | 0.00 | 0.00 | 0.00 | 91 | 1012.3 |
| 20260903001601 | 20 | 211 | 6.4 | 16.1 | 0.00 | 0.00 | 0.00 | 91 | 1013.6 |
| 20260902234553 | 23 | 252 | 25.7 | 45.1 | 0.00 | 0.00 | 0.00 | 87 | 1014.7 |
| 20260902233051 | 24 | 84 | 6.4 | 12.9 | 0.00 | 0.00 | 0.00 | 89 | 1010.9 |
| 20260902231549 | 25 | 144 | 3.2 | 6.4 | 0.00 | 0.00 | 0.00 | 89 | 1011.9 |
| 20260902230114 | 25 | 144 | 1.6 | 4.8 | 0.00 | 0.00 | 0.00 | 89 | 1011.9 |
| 20260902224558 | 25 | 144 | 1.6 | 3.2 | 0.00 | 0.00 | 0.00 | 86 | 1012.2 |
| 20260902223053 | 26 | 0 | 0.0 | 0.0 | 0.00 | 0.00 | 0.00 | 87 | 1011.7 |
| 20260902221601 | 26 | 0 | 0.0 | 0.0 | 0.00 | 0.00 | 0.00 | 87 | 1011.8 |
| 20260902220057 | 26 | 0 | 0.0 | 0.0 | 0.00 | 0.00 | 0.00 | 86 | 1011.7 |
| 20260902214548 | 25 | 0 | 0.0 | 4.8 | 0.00 | 0.00 | 0.00 | 86 | 1012.0 |
| 20260902213048 | 25 | 144 | 4.8 | 11.3 | 0.00 | 0.00 | 0.00 | 86 | 1012.0 |
| 20260902211551 | 25 | 149 | 4.8 | 11.3 | 0.00 | 0.00 | 0.00 | 84 | 1012.2 |
| 20260902210100 | 26 | 60 | 3.2 | 8.0 | 0.00 | 0.00 | 0.00 | 80 | 1013.1 |
| 20260902204545 | 27 | 0 | 0.0 | 4.8 | 0.00 | 0.00 | 0.00 | 79 | 1013.7 |
| 20260902203100 | 27 | 333 | 4.8 | 9.7 | 0.00 | 0.00 | 0.00 | 77 | 1014.1 |
| 20260902201555 | 28 | 325 | 3.2 | 9.7 | 0.00 | 0.00 | 0.00 | 77 | 1014.0 |
| 20260902200105 | 28 | 254 | 6.4 | 12.9 | 0.00 | 0.00 | 0.00 | 76 | 1014.0 |
| 20260902194558 | 28 | 240 | 8.0 | 12.9 | 0.00 | 0.00 | 0.00 | 74 | 1014.0 |
| 20260902193057 | 29 | 213 | 8.0 | 17.7 | 0.00 | 0.00 | 0.00 | 74 | 1013.4 |
| 20260902191600 | 28 | 190 | 9.7 | 17.7 | 0.00 | 0.00 | 0.00 | 76 | 1013.2 |
| 20260902190118 | 28 | 199 | 11.3 | 19.3 | 0.00 | 0.00 | 0.00 | 76 | 1013.3 |
| 20260902184558 | 28 | 167 | 9.7 | 19.3 | 0.00 | 0.00 | 0.00 | 75 | 1013.1 |
| 20260902183048 | 28 | 210 | 11.3 | 19.3 | 0.00 | 0.00 | 0.00 | 74 | 1013.4 |
| 20260902181610 | 28 | 194 | 8.0 | 17.7 | 0.00 | 0.00 | 0.00 | 77 | 1013.7 |
| 20260902180054 | 28 | 191 | 12.9 | 20.9 | 0.00 | 0.00 | 0.00 | 76 | 1014.1 |
| 20260902174556 | 27 | 183 | 12.9 | 25.7 | 0.00 | 0.00 | 0.00 | 77 | 1014.4 |
| 20260902173050 | 27 | 204 | 12.9 | 24.1 | 0.00 | 0.00 | 0.00 | 79 | 1014.4 |
| 20260902171610 | 27 | 178 | 9.7 | 29.0 | 0.00 | 0.00 | 0.00 | 82 | 1014.3 |
| 20260902170056 | 26 | 190 | 12.9 | 25.7 | 0.00 | 0.00 | 0.00 | 82 | 1014.2 |
| 20260902164551 | 25 | 189 | 16.1 | 29.0 | 0.00 | 0.00 | 0.00 | 85 | 1014.5 |
| 20260902163050 | 25 | 163 | 16.1 | 27.4 | 0.00 | 0.00 | 0.00 | 86 | 1014.7 |
| 20260902161603 | 25 | 207 | 16.1 | 32.2 | 0.00 | 0.00 | 0.00 | 87 | 1014.8 |
| 20260902160045 | 24 | 175 | 16.1 | 32.2 | 0.00 | 0.00 | 0.00 | 88 | 1015.0 |
| 20260902154550 | 23 | 192 | 14.5 | 24.1 | 0.00 | 0.00 | 0.00 | 91 | 1015.0 |
| 20260902153051 | 23 | 172 | 11.3 | 24.1 | 0.00 | 0.00 | 0.00 | 93 | 1014.7 |
| 20260902151550 | 22 | 175 | 11.3 | 19.3 | 0.00 | 0.00 | 0.00 | 95 | 1015.1 |
| 20260902150046 | 21 | 149 | 8.0 | 19.3 | 0.00 | 0.00 | 0.00 | 96 | 1014.9 |
| 20260902144559 | 21 | 199 | 4.8 | 20.9 | 0.00 | 0.00 | 0.00 | 96 | 1015.2 |
| 20260902143054 | 20 | 133 | 11.3 | 24.1 | 0.00 | 0.00 | 0.00 | 96 | 1015.5 |
| 20260902141552 | 20 | 144 | 14.5 | 30.6 | 0.00 | 0.00 | 0.00 | 95 | 1015.1 |
| 20260902140052 | 20 | 140 | 11.3 | 17.7 | 0.00 | 0.00 | 0.00 | 95 | 1016.0 |
| 20260902134554 | 20 | 355 | 6.4 | 12.9 | 0.00 | 0.00 | 0.00 | 95 | 1017.1 |
| 20260902133055 | 21 | 29 | 4.8 | 16.1 | 0.00 | 0.00 | 0.00 | 95 | 1016.5 |
| 20260902131549 | 21 | 340 | 4.8 | 12.9 | 0.00 | 0.00 | 0.00 | 96 | 1017.3 |
| 20260902130053 | 21 | 105 | 3.2 | 12.9 | 0.00 | 0.00 | 0.00 | 96 | 1016.1 |
| 20260902124553 | 21 | 95 | 4.8 | 12.9 | 0.00 | 0.00 | 0.00 | 96 | 1015.9 |
| 20260902123058 | 21 | 121 | 0.0 | 9.7 | 0.00 | 0.00 | 0.00 | 96 | 1016.2 |
| 20260902121549 | 21 | 103 | 6.4 | 12.9 | 0.00 | 0.00 | 0.00 | 96 | 1015.3 |
| 20260902120054 | 21 | 29 | 1.6 | 11.3 | 0.00 | 0.00 | 0.00 | 96 | 1015.8 |
| 20260902114548 | 21 | 157 | 9.7 | 19.3 | 0.00 | 0.00 | 0.00 | 96 | 1014.9 |
| 20260902113045 | 21 | 169 | 12.9 | 24.1 | 0.00 | 0.00 | 0.00 | 96 | 1014.5 |
| 20260902111553 | 21 | 184 | 12.9 | 25.7 | 0.00 | 0.00 | 0.00 | 96 | 1013.8 |
| 20260902110046 | 20 | 169 | 16.1 | 29.0 | 0.00 | 0.00 | 0.00 | 96 | 1014.0 |
| 20260902104545 | 20 | 172 | 14.5 | 22.5 | 0.00 | 0.00 | 0.00 | 96 | 1013.9 |
| 20260902103051 | 20 | 157 | 12.9 | 24.1 | 0.00 | 0.00 | 0.00 | 96 | 1013.9 |
| 20260902101548 | 20 | 164 | 14.5 | 24.1 | 0.00 | 0.00 | 0.00 | 96 | 1014.1 |
| 20260902100057 | 20 | 172 | 8.0 | 14.5 | 0.00 | 0.00 | 0.00 | 96 | 1014.3 |
| 20260902094557 | 20 | 161 | 6.4 | 14.5 | 0.00 | 0.00 | 0.00 | 96 | 1014.6 |
| 20260902093047 | 20 | 150 | 4.8 | 9.7 | 0.00 | 0.00 | 0.00 | 96 | 1014.7 |
| 20260902091557 | 20 | 0 | 0.0 | 0.0 | 0.00 | 0.00 | 0.00 | 96 | 1014.9 |
| 20260902090052 | 20 | 0 | 0.0 | 3.2 | 0.00 | 0.00 | 0.00 | 96 | 1015.1 |
| 20260902084603 | 20 | 149 | 3.2 | 9.7 | 0.00 | 0.00 | 0.00 | 96 | 1015.0 |